Regional Weather Roundup
Issued by NWS

Home | Current Version | Previous Version | Graphics & Text | Print | Product List | Glossary On
Versions: 1 2 3 4 5 6 7 8 9 10 11 12 13 14 15 16 17 18 19 20 21 22 23 24 25 26 27 28 29 30 31 32 33 34 35 36 37 38 39 40 41 42 43 44 45 46 47 48 49 50
000
ASUS43 KBIS 171610
RWRND

NORTH DAKOTA REGIONAL WEATHER ROUNDUP
NATIONAL WEATHER SERVICE BISMARCK ND
1000 AM CST TUE JAN 17 2017

NOTE: "FAIR" INDICATES FEW OR NO CLOUDS BELOW 12,000 FEET WITH NO
SIGNIFICANT WEATHER AND/OR OBSTRUCTIONS TO VISIBILITY.


NDZ001>003-009>011-017-171700-
NORTHWEST NORTH DAKOTA

CITY           SKY/WX    TMP DP  RH WIND       PRES   REMARKS
WILLISTON      FAIR      17   9  70 S7        29.79F WCI   8
MINOT          FAIR      19  11  70 S8        29.79S WCI   9
$$

NDZ018>021-031>035-040>046-171700-
SOUTHWEST NORTH DAKOTA

CITY           SKY/WX    TMP DP  RH WIND       PRES   REMARKS
BISMARCK       FAIR       5   2  87 SE5       29.94R WCI  -4
DICKINSON      FAIR      20  10  65 S15       29.81S WCI   6
GARRISON         N/A      9   5  84 S7        29.84F WCI  -2
HETTINGER ARPT CLOUDY    16   6  65 W5        29.90S WCI   9
$$

NDZ004>008-012>016-024-026-027-054-171700-
NORTHEAST NORTH DAKOTA

CITY           SKY/WX    TMP DP  RH WIND       PRES   REMARKS
GRAND FORKS    CLOUDY    11   6  81 S10       29.92S WCI  -3
GRND FRKS AFB  CLOUDY    10   5  80 S8        29.91S WCI  -1
DEVILS LAKE    FAIR       9   6  88 S3        29.87F
$$

NDZ022-023-025-028>030-036>039-047>053-171700-
SOUTHEAST NORTH DAKOTA

CITY           SKY/WX    TMP DP  RH WIND       PRES   REMARKS
FARGO          CLOUDY    10   7  87 S9        29.98R WCI  -3
JAMESTOWN      FAIR      14  11  87 W3        29.92S
$$





USA.gov is the U.S. government's official web portal to all federal, state and local government web resources and services.